SL-8 R/B (20775 NORAD) Tracking and Keplerian Element Data

This shows tracking and keplerian element data for the satellite.

Feedback or suggestion? Click here.




ElementValue
Catalog20775
NameSL-8 R/B
Epoch Orbit58857
Epoch Day15.77667251
Epoch Year2022
RAAN109.646
Inclination82.9271
Eccentricity0.0561779
Argument of Perigee202.7815
Mean Anonmoly154.7548
Mean Motion14.37208657
Decay Rate9.39E-05
L11 20775U 90078B 22015.77667251 .00009390 00000+0 45108-3 0 9997
L22 20775 82.9271 109.6460 0561779 202.7815 154.7548 14.37208657588578

Live tracking and technical data element details for SL-8 R/B (NORAD 20775). SL-8 R/B can be tracked NOW for your location showing map with azimuth and elevation plus other details from your city location.

Track the satellite on the map from your city or location and see movement details for azimuth, elevation, latitude, longitude, range, height, and movement on the map or in text.







IsCatalogInMostPopularTable: catalog: 20775, numindb: 256
Update: records affected: 1



GetName: 20775 SL-8 R/B

Hit Count: updated at: Mon, 17 Jan 2022 00:46:03 GMT